Starlink 35196

operational
NORAD ID: 66007 Int'l Des: 2025-232 Owner: SPXS Country: US Constellation: starlink
LEOCIRCULAR

Über Starlink 35196

Beschreibung wird geladen...

Live-Position

3D-Globus wird geladen...

Nächste Überflüge

Höhenverlauf

Altitude vs Time

uPlot chart will show altitude changes over time

Zweizeiliger Elementsatz

1 66007C 25232C 25290.40951389 .00981960 00000+0 13673-2 0 2908
2 66007 53.1575 58.9265 0008802 285.7993 198.3015 16.04146858 14
Epoch: 17. Okt. 2025 • Age: 63 hours

Aktueller Status

Höhe 249.3 km
Geschwindigkeit 7.76 km/s
Subsatellitenpunkt -4.82°S, 149.82°E
Startdatum 16. Okt. 2025
Alter 3 days
Typ internet

Technische Details

Klassifizierung Payload
Masse 575.00 kg
Trockenmasse 530.00 kg
Gesamtmasse 575.00 kg
Länge 0.30 m
Durchmesser 4.10 m
Spannweite 29.00 m
Form Box + pan
Hersteller SPXS
Bus-Typ Starlink V2MO
Phasenstatus In Orbit
Besitzer/Staat SPXS/US

Große Konstellationen

Loading constellations...